Helicity
51 57 72 91 102 92 18 18 26 39 22 25 21 46 91 158 204 97 86 67 88 91 28 28 68 115 128 148 151 171 171 152 141 135 142 138 107 86 93 78 52 52 67 74 79 85 83 92 88
52 68 95 97 138 95 13 -15 -16 41 91 128 58 53 122 132 142 153 150 -13 63 80 15 16 28 78 102 121 126 137 130 120 113 104 96 90 81 81 72 60 48 56 66 69 80 97 108 111 137
69 96 118 144 138 86 34 0 8 97 65 55 51 16 26 51 100 73 -5 47 110 62 4 -19 8 32 96 110 114 115 111 99 90 78 78 76 62 66 66 62 64 58 57 56 90 103 121 139 121
97 128 144 161 86 16 43 45 29 56 78 10 44 39 67 23 1 6 117 136 88 28 -39 -22 -6 2 78 96 105 102 94 90 81 71 74 66 58 61 60 60 60 55 42 37 95 108 135 149 142
147 143 180 133 43 -9 17 15 10 64 136 163 68 -16 88 130 139 121 154 142 102 28 -39 -28 5 -7 69 82 89 96 91 86 86 74 73 65 53 61 61 63 52 40 16 40 117 145 158 152 135
174 185 205 141 49 6 -16 -14 2 44 109 138 115 59 61 217 233 178 208 160 106 56 -15 -41 -8 33 55 70 81 82 84 83 91 80 80 71 61 70 69 59 52 38 23 50 107 150 178 142 121
191 239 186 134 48 17 -7 18 48 91 66 109 177 97 144 178 194 256 212 143 124 127 49 -27 5 65 71 56 72 76 78 76 84 81 76 73 74 89 87 69 56 53 48 53 92 156 160 122 120
196 245 238 184 134 44 14 38 25 10 33 -8 60 98 57 162 311 318 233 198 189 195 92 44 72 114 109 68 62 72 69 70 76 84 85 87 89 97 100 102 84 69 63 54 68 147 161 112 99
195 298 304 266 215 182 51 -6 -42 2 42 -8 56 12 47 166 405 394 317 280 299 219 123 129 158 163 151 115 76 78 75 71 65 81 95 110 84 94 110 113 124 84 69 53 43 108 115 105 97
264 321 278 219 159 108 24 5 -1 -39 49 94 84 161 50 255 303 363 300 280 248 209 168 156 200 183 200 165 128 98 102 80 76 79 97 109 94 90 106 113 126 89 85 60 57 63 98 106 116
264 279 228 197 117 92 83 34 27 9 54 102 82 171 123 79 210 211 270 298 185 181 186 159 213 236 243 228 187 147 130 124 101 117 132 118 120 107 116 123 128 94 110 82 76 68 91 95 144
230 193 169 152 105 97 98 88 32 71 79 103 99 114 108 71 68 114 123 95 167 201 179 228 264 259 264 298 235 191 166 154 135 132 160 163 151 141 126 139 153 123 134 132 98 77 59 83 107
152 115 128 144 136 117 99 91 106 31 47 61 103 73 53 37 49 65 73 77 77 108 209 208 287 264 283 285 264 234 206 168 170 170 165 166 168 159 163 166 166 155 144 142 144 100 59 67 117
154 117 112 81 92 107 98 73 90 78 37 44 78 91 44 38 34 47 77 83 167 108 128 292 249 276 305 310 275 276 262 212 205 196 168 128 146 173 180 199 185 167 158 127 134 110 87 87 147
85 59 31 42 79 85 79 64 123 60 32 29 29 73 68 45 50 29 57 101 114 180 242 275 266 296 289 282 304 282 272 261 235 215 185 174 178 189 190 195 199 188 157 127 114 129 115 150 157
91 75 120 79 121 100 104 -4 110 84 73 55 21 30 60 50 -26 2 30 88 138 145 239 249 256 281 274 271 314 292 285 266 232 215 214 174 189 204 201 213 201 196 172 150 128 158 180 171 175
108 114 115 109 74 93 113 52 133 131 104 112 89 54 42 49 73 53 34 85 106 227 216 219 264 270 284 299 310 296 271 247 197 214 198 168 177 191 190 204 209 212 183 161 150 174 202 169 196
181 170 125 137 121 217 210 63 32 109 138 115 134 152 108 81 57 62 32 32 74 95 227 227 279 274 302 342 367 335 267 209 218 200 189 182 164 162 186 208 212 226 203 199 189 191 208 175 206
161 164 123 122 157 171 163 91 25 115 123 142 163 163 175 140 81 4 -17 -3 54 167 220 254 293 302 359 375 373 324 320 253 242 207 173 174 152 146 165 196 211 215 224 231 246 243 226 228 248
126 131 135 102 67 116 128 108 66 76 143 139 119 128 122 144 85 8 -26 -11 29 99 196 342 285 334 349 347 362 337 318 246 198 216 205 187 187 192 161 186 225 250 237 228 255 241 261 256 265
107 106 102 109 92 69 125 101 104 73 68 96 79 72 97 97 103 54 19 -47 49 206 292 397 427 389 362 315 359 343 350 309 280 235 217 239 235 214 191 209 247 267 246 233 256 232 264 285 283
168 227 160 126 115 86 167 167 20 55 50 76 75 73 62 59 63 53 89 55 104 199 316 357 391 353 307 283 305 289 236 206 173 176 159 192 249 252 223 239 223 231 230 168 188 259 265 272 268
177 145 111 108 127 113 73 252 103 104 5 -22 16 36 55 48 31 46 154 193 249 252 265 314 340 373 378 346 321 256 175 160 175 188 182 205 192 237 216 220 222 216 206 191 189 261 248 255 296
130 127 106 108 168 242 134 143 180 77 42 48 103 93 52 74 156 107 161 315 342 403 376 344 349 389 385 333 265 235 165 134 153 156 163 162 149 173 173 162 198 214 213 194 200 213 242 244 274
146 125 129 120 197 204 344 353 324 135 84 25 79 53 27 -55 -25 93 117 307 347 417 470 364 266 245 131 118 195 179 158 145 72 75 93 102 111 120 134 160 161 193 178 173 168 185 206 242 253
34 130 265 313 313 269 196 333 170 119 -7 -19 52 73 37 15 25 99 134 336 461 446 417 330 326 222 224 305 160 159 233 168 93 74 70 76 100 113 112 138 176 194 149 128 178 207 196 220 214
95 194 186 317 289 308 226 163 132 159 100 149 142 151 210 243 273 164 268 435 421 457 419 295 340 406 275 284 316 297 213 110 71 65 59 60 65 90 124 129 114 144 130 157 171 173 203 240 220
64 64 166 252 322 257 166 98 61 86 -2 -64 115 179 204 472 499 351 403 508 470 441 394 371 385 316 293 248 202 155 108 82 67 46 55 61 57 61 74 114 139 152 155 156 167 177 171 190 233
76 78 96 80 82 59 1 49 9 14 4 8 -62 22 9 473 615 470 354 511 491 416 456 415 398 251 145 118 116 118 106 55 38 16 29 63 59 55 57 63 114 130 152 165 182 160 145 172 207
41 43 43 33 49 13 19 19 -11 -80 -54 -45 -40 52 36 138 613 524 398 611 504 451 410 382 308 166 152 106 104 116 67 64 46 51 63 48 74 91 58 60 122 110 137 146 145 127 146 175 183
Wind_Speed
25 26 29 32 32 34 35 32 31 39 40 39 45 20 6 23 6 39 15 23 18 27 28 27 25 23 26 25 25 26 26 26 27 27 28 29 31 32 33 33 33 33 32 30 27 26 26 24 26
22 25 30 30 32 35 36 27 25 32 44 48 38 27 22 19 25 17 13 13 19 22 21 23 26 25 26 27 26 26 26 26 28 29 29 30 31 30 31 33 32 32 31 30 27 25 24 24 22
20 28 28 27 27 27 30 21 22 49 53 46 42 26 18 22 32 7 16 16 20 19 17 20 24 25 27 27 28 26 26 26 28 29 29 30 31 30 31 32 32 32 31 29 27 24 23 23 22
23 28 29 30 16 15 27 28 45 61 54 52 49 50 27 22 9 8 8 14 16 16 14 20 23 23 24 24 26 27 27 27 27 27 28 29 30 30 31 31 32 31 30 30 28 23 23 24 23
28 29 30 29 12 13 40 42 52 53 54 64 71 45 35 31 24 5 11 12 13 12 11 16 22 22 23 23 24 24 25 26 25 26 26 27 29 28 30 30 31 30 29 29 27 23 22 22 22
29 30 37 24 15 22 50 49 41 43 53 66 59 48 41 26 14 5 5 5 3 12 13 13 15 16 17 19 21 21 22 23 23 23 23 26 27 27 28 28 29 29 28 27 24 21 20 21 22
35 33 39 33 22 44 41 37 42 54 56 56 68 46 41 23 10 8 9 7 5 3 7 9 11 11 12 14 17 18 19 19 19 20 20 21 23 24 25 25 26 27 26 25 22 19 20 21 19
39 40 46 39 36 59 49 51 52 55 64 58 57 51 46 23 12 9 8 9 10 8 4 5 3 5 5 7 12 14 15 16 16 17 18 19 19 21 22 21 23 25 24 23 20 19 19 20 18
37 46 45 41 48 55 61 67 51 57 67 67 57 58 60 24 11 14 13 12 10 11 11 8 5 2 3 3 7 9 10 12 14 12 14 15 14 16 19 18 21 21 21 22 22 20 19 18 17
43 53 53 53 55 64 80 77 80 69 74 83 71 66 51 30 20 22 22 21 18 16 15 13 11 7 5 3 3 3 5 6 8 7 8 9 10 12 16 17 18 17 19 22 22 19 16 15 14
50 58 57 60 66 70 77 91 76 75 77 69 69 71 59 37 37 41 28 26 25 21 18 17 15 13 11 11 9 7 6 5 5 5 5 3 5 5 9 13 13 14 18 20 18 15 13 13 14
60 62 68 72 74 77 75 75 88 70 75 77 73 68 59 49 36 46 47 39 26 23 24 22 21 18 19 17 17 14 12 11 9 9 7 5 4 4 5 9 9 11 15 17 15 13 11 10 11
66 67 66 67 68 69 73 74 76 88 73 68 78 63 58 56 52 42 42 53 53 46 30 26 23 21 20 21 21 20 19 18 16 14 12 11 10 8 6 4 6 7 12 13 13 9 9 9 10
63 72 76 68 67 70 78 83 70 67 69 74 71 73 65 65 63 59 55 53 52 55 49 35 30 26 22 21 22 24 24 23 22 21 17 17 16 16 13 9 7 6 7 8 9 6 7 7 11
67 82 81 72 69 70 72 85 72 68 65 72 69 73 76 69 67 69 68 65 58 50 52 48 39 34 30 26 25 25 25 24 25 24 24 22 22 22 18 15 12 10 7 7 6 2 2 4 6
71 71 76 57 61 63 62 107 68 66 70 76 73 69 73 78 68 66 67 70 69 62 49 51 45 40 37 35 33 31 29 29 30 26 27 27 27 27 23 20 17 14 11 10 9 5 1 2 1
57 71 73 71 56 61 57 96 59 64 78 81 79 72 68 71 74 72 72 72 71 66 59 53 51 48 43 41 39 38 35 36 33 31 32 31 31 30 28 25 21 17 15 13 12 8 6 4 4
65 71 70 71 60 71 84 105 95 69 70 81 78 80 72 73 79 78 80 82 88 81 64 60 56 51 46 44 42 42 37 33 34 35 33 32 33 32 32 31 25 21 19 16 14 14 11 8 5
66 72 83 80 74 76 83 97 105 84 73 78 85 82 81 82 77 76 86 88 88 86 69 63 58 52 47 47 48 46 43 40 44 35 32 30 27 30 30 31 28 25 25 23 19 14 13 16 8
63 71 75 75 59 67 79 91 90 88 79 78 81 83 83 83 78 78 83 77 73 73 66 55 56 51 46 44 44 47 43 44 38 45 42 37 34 35 34 35 33 30 28 26 24 18 13 20 9
67 68 72 79 81 72 80 92 80 80 79 78 77 77 79 79 83 80 80 62 57 54 47 42 43 40 44 40 40 43 41 49 50 55 58 54 51 46 45 40 38 33 32 30 28 22 19 20 16
70 71 77 79 85 93 68 106 100 91 88 82 81 77 82 86 87 82 65 47 31 29 24 20 21 23 26 29 37 44 49 56 57 57 60 61 55 56 52 43 39 32 29 29 31 29 25 21 20
61 73 74 79 85 87 90 77 94 89 103 92 92 94 98 94 86 79 57 34 25 22 20 19 17 16 16 18 24 36 45 59 65 65 66 64 63 58 50 47 40 38 33 32 32 32 28 27 23
75 80 82 80 77 86 85 82 85 97 90 93 93 92 93 93 77 66 44 27 28 24 24 22 17 17 16 21 23 30 39 57 66 69 71 69 66 60 52 45 44 39 37 34 34 35 33 31 26
82 88 92 88 74 80 72 85 73 82 85 85 94 96 93 87 83 69 45 31 27 26 25 23 18 16 16 20 30 31 40 48 60 66 68 68 67 64 57 47 42 35 35 36 35 34 34 32 30
80 66 73 92 94 100 92 86 87 73 77 82 79 82 82 82 82 65 48 39 30 26 21 19 15 18 31 32 34 41 44 51 57 59 64 68 68 66 62 50 47 43 36 35 32 35 33 32 32
69 72 63 80 89 97 87 86 68 79 81 82 77 72 73 71 65 50 41 36 25 22 21 17 16 19 26 33 36 36 42 48 56 57 59 63 64 66 67 62 53 47 42 38 33 35 37 34 35
65 65 73 67 91 96 83 76 72 75 74 72 69 66 62 60 51 34 25 25 18 11 10 11 15 24 29 32 34 37 42 47 53 56 58 61 65 66 66 63 60 50 45 42 39 39 41 37 39
62 61 56 55 56 69 69 55 46 57 64 66 59 57 55 54 41 33 20 12 7 9 12 18 23 27 30 37 40 43 45 49 51 55 58 62 64 66 66 69 62 55 45 37 40 42 40 41 41
44 54 44 52 55 44 42 42 44 53 59 56 49 54 55 42 36 29 11 4 9 13 17 21 26 32 39 45 47 47 47 53 56 58 61 63 65 68 68 65 61 58 48 37 39 43 42 42 40
Wind_Direction
343 340 338 333 330 334 329 334 341 339 342 336 316 336 24 309 312 301 61 105 96 109 111 111 101 84 89 83 81 80 80 82 82 81 81 81 83 86 87 84 87 85 84 78 68 62 66 64 69
351 345 336 332 322 320 324 338 342 351 339 316 326 343 327 316 320 347 57 75 103 107 104 106 107 93 91 89 85 82 83 85 87 88 86 86 88 85 85 87 86 84 84 80 72 63 65 65 64
351 334 330 332 321 311 320 337 341 321 317 319 317 336 337 320 313 97 348 104 109 102 101 104 108 100 92 91 92 87 87 89 91 92 91 91 94 89 87 86 85 86 86 83 72 62 67 69 71
338 331 336 317 309 327 316 327 315 305 312 316 317 300 325 317 317 319 90 112 112 105 108 111 111 105 92 91 93 93 93 94 95 95 95 97 97 94 92 89 86 85 83 82 74 63 65 71 76
328 328 314 318 292 295 305 310 313 312 310 301 301 303 310 314 304 290 147 143 134 118 116 119 116 110 98 97 97 96 99 100 99 100 100 102 103 99 98 91 89 87 89 88 74 65 68 73 81
315 320 307 297 271 312 300 307 316 318 313 306 309 300 305 319 309 263 221 188 198 129 119 125 119 111 103 102 101 100 101 103 104 104 105 109 110 107 104 96 93 92 90 91 77 69 69 80 88
302 306 299 303 290 307 309 316 312 310 309 315 316 302 304 298 280 196 191 225 211 198 129 129 118 110 110 108 106 105 106 105 105 106 106 110 113 112 112 101 96 94 92 95 82 73 81 86 85
301 301 298 300 297 290 302 303 303 306 298 311 325 313 303 289 260 232 240 248 247 244 231 239 140 112 121 114 115 114 112 112 111 111 111 114 115 117 115 105 102 95 92 100 88 86 88 88 79
303 293 288 289 297 296 295 296 304 305 298 300 311 319 305 292 231 226 241 256 249 251 250 242 231 208 197 140 129 126 124 121 117 112 113 113 110 117 120 110 107 98 96 102 98 93 92 85 81
289 290 293 298 299 299 289 293 290 298 296 285 298 307 323 299 250 216 223 230 233 227 237 239 243 225 204 232 212 179 149 141 133 122 117 111 114 118 122 118 116 101 101 108 103 96 85 74 66
295 285 294 297 297 298 297 287 293 293 290 289 295 299 309 307 279 273 246 233 220 230 246 235 237 234 225 241 247 254 234 215 193 171 164 135 122 116 122 122 111 98 104 110 99 91 77 70 50
292 292 294 295 296 296 297 298 288 292 290 288 290 295 297 296 293 273 273 271 248 241 235 246 253 245 251 250 253 248 240 245 238 240 211 233 216 182 156 144 128 116 113 115 106 86 80 75 62
295 298 299 302 300 299 297 294 294 287 293 291 284 289 288 290 288 286 277 273 277 273 256 250 243 241 249 252 256 253 251 248 255 249 244 253 255 240 234 200 161 140 129 126 117 75 102 99 26
300 299 299 301 301 300 296 293 295 295 294 291 287 282 283 284 284 283 284 282 273 269 269 260 249 244 244 247 252 256 254 254 253 251 248 242 256 264 261 246 213 189 153 141 134 112 119 94 16
302 297 298 299 298 298 299 292 291 298 298 292 288 285 281 281 283 281 283 283 279 271 260 257 251 249 245 242 252 258 260 257 255 253 245 249 258 265 257 249 240 225 201 174 161 118 60 47 47
301 299 297 305 306 304 303 286 301 303 300 295 294 292 286 279 282 284 285 285 284 279 265 251 250 246 248 254 257 260 261 265 265 263 259 248 252 262 262 257 246 243 222 209 192 199 231 329 110
306 298 299 303 310 305 300 293 309 309 301 297 296 293 292 288 283 285 286 288 287 282 266 253 247 248 248 255 261 264 266 268 271 268 266 258 255 255 256 259 256 249 227 222 212 235 238 273 303
304 302 301 302 308 305 299 291 296 306 303 297 297 296 294 291 288 287 287 288 286 284 267 254 249 249 252 259 264 267 268 265 272 272 270 265 261 256 255 262 255 245 235 235 231 226 252 270 284
304 301 298 302 304 303 300 296 294 302 302 299 295 296 295 293 296 294 290 289 288 281 261 256 250 251 251 257 259 262 264 266 267 267 268 268 261 261 252 254 249 241 229 230 230 253 232 288 293
308 305 303 305 309 309 304 299 299 299 300 299 297 296 295 295 298 300 295 290 291 287 266 244 245 249 251 254 258 269 265 267 261 268 269 268 267 266 260 261 255 246 245 232 232 215 255 281 244
307 306 307 304 307 306 304 298 299 300 301 300 300 299 298 297 297 300 296 293 293 285 273 252 246 247 253 254 262 273 272 273 270 268 270 271 271 271 269 264 261 253 249 237 227 219 221 254 253
308 312 308 306 306 302 307 298 297 298 298 300 299 299 298 296 296 298 297 289 284 279 274 263 246 246 254 260 265 271 271 270 272 273 273 273 271 272 268 264 261 252 245 239 234 229 232 236 253
313 313 309 308 304 305 298 299 297 300 298 298 298 296 294 294 295 291 290 270 252 247 252 262 267 269 276 276 276 282 283 278 276 276 274 274 275 272 268 264 257 254 248 239 234 241 240 234 244
318 314 310 306 303 296 300 301 297 301 305 302 303 302 299 297 293 294 281 263 249 230 239 265 267 273 287 291 291 298 296 286 280 274 272 272 274 274 270 263 262 254 246 243 240 242 233 236 247
317 315 308 305 302 299 310 306 306 311 311 310 306 304 302 299 287 286 271 248 239 239 237 244 272 276 287 303 307 308 305 299 285 276 272 272 274 275 272 267 264 255 248 249 245 239 239 235 241
315 313 309 304 302 302 305 300 302 314 317 318 314 312 311 306 294 275 259 243 235 237 245 246 234 289 300 302 304 312 309 301 291 285 276 271 273 274 275 274 269 263 259 251 235 242 240 237 246
316 309 312 305 303 301 302 302 305 314 318 318 316 315 312 313 303 282 255 224 229 244 260 275 303 304 318 316 313 317 313 302 291 288 285 278 277 276 274 275 275 267 260 252 239 238 244 250 260
322 317 310 309 307 303 306 306 309 317 320 320 312 308 311 310 303 289 249 228 231 248 283 309 326 330 326 320 323 318 314 308 301 289 289 284 280 279 276 275 272 268 265 255 242 248 252 256 265
331 331 325 318 314 310 315 320 330 320 305 310 305 301 297 294 289 277 245 217 260 301 313 312 332 325 312 317 316 316 319 313 305 295 290 288 285 282 279 271 270 268 263 256 247 249 251 256 264
339 339 340 333 324 324 330 332 328 304 310 310 301 297 289 290 280 275 255 223 274 301 313 319 326 310 314 319 321 327 322 315 313 307 301 294 290 282 278 274 272 269 261 257 253 249 253 257 258